Time,TemperatureF,DewpointF,PressureIn,WindDirection,WindDirectionDegrees,WindSpeedMPH,WindSpeedGustMPH,Humidity,HourlyPrecipIn,Conditions,Clouds,dailyrainin,SoftwareType,DateUTC
2013-05-19 00:01:00,46.9,45.3,29.62,SSE,166,0.0,0.0,94,0.00,,,0.00,meteohub,2013-05-19 04:01:00,
2013-05-19 00:02:00,46.9,45.3,29.62,SSE,166,0.0,0.0,94,0.00,,,0.00,meteohub,2013-05-19 04:02:00,
2013-05-19 00:03:00,46.9,45.3,29.62,SSE,166,0.0,0.0,94,0.00,,,0.00,meteohub,2013-05-19 04:03:00,
2013-05-19 00:08:00,46.9,45.3,29.62,SSE,166,0.0,0.0,94,0.00,,,0.00,meteohub,2013-05-19 04:08:00,
2013-05-19 00:14:00,46.9,45.3,29.62,SSE,166,0.0,0.0,94,0.00,,,0.00,meteohub,2013-05-19 04:14:00,
2013-05-19 00:19:00,46.8,45.1,29.62,SSE,167,0.0,0.0,94,0.00,,,0.00,meteohub,2013-05-19 04:19:00,
2013-05-19 00:24:00,46.8,45.1,29.62,SSE,166,0.0,0.0,94,0.00,,,0.00,meteohub,2013-05-19 04:24:00,
2013-05-19 00:29:00,46.8,45.1,29.62,SSE,167,0.0,0.0,94,0.00,,,0.00,meteohub,2013-05-19 04:29:00,
2013-05-19 00:34:00,46.8,45.1,29.62,SSE,167,0.0,0.0,94,0.00,,,0.00,meteohub,2013-05-19 04:34:00,
2013-05-19 00:39:00,46.8,45.1,29.62,SSE,167,0.0,0.0,94,0.00,,,0.00,meteohub,2013-05-19 04:39:00,
2013-05-19 00:44:00,46.8,45.1,29.62,SSE,166,0.0,0.0,94,0.00,,,0.00,meteohub,2013-05-19 04:44:00,
2013-05-19 00:49:00,46.8,45.1,29.62,SSE,167,0.0,0.0,94,0.00,,,0.00,meteohub,2013-05-19 04:49:00,
2013-05-19 00:54:00,46.6,45.0,29.62,SSE,167,0.0,0.0,94,0.00,,,0.00,meteohub,2013-05-19 04:54:00,
2013-05-19 00:59:00,46.8,45.1,29.62,SSE,166,0.0,0.0,94,0.00,,,0.00,meteohub,2013-05-19 04:59:00,
2013-05-19 01:04:00,46.8,45.1,29.62,SSE,166,0.0,0.0,94,0.00,,,0.00,meteohub,2013-05-19 05:04:00,
2013-05-19 01:10:00,46.8,45.1,29.62,SSE,166,0.0,0.0,94,0.00,,,0.00,meteohub,2013-05-19 05:10:00,
2013-05-19 01:15:00,46.6,45.0,29.62,SSE,167,0.0,0.0,94,0.00,,,0.00,meteohub,2013-05-19 05:15:00,
2013-05-19 01:20:00,46.6,45.0,29.62,SSE,166,0.0,0.0,94,0.00,,,0.00,meteohub,2013-05-19 05:20:00,
2013-05-19 01:25:00,46.6,45.0,29.61,SSE,167,0.0,0.0,94,0.00,,,0.00,meteohub,2013-05-19 05:25:00,
2013-05-19 01:30:00,46.4,44.8,29.61,SSE,167,0.0,0.0,94,0.00,,,0.00,meteohub,2013-05-19 05:30:00,
2013-05-19 01:35:00,46.4,45.0,29.61,SSE,167,0.0,0.0,95,0.00,,,0.00,meteohub,2013-05-19 05:35:00,
2013-05-19 01:40:00,46.6,45.1,29.61,SSE,166,0.0,0.0,95,0.00,,,0.00,meteohub,2013-05-19 05:40:00,
2013-05-19 01:45:00,46.6,45.1,29.61,SSE,166,0.0,0.0,95,0.00,,,0.00,meteohub,2013-05-19 05:45:00,
2013-05-19 01:50:00,46.8,45.3,29.61,SSE,166,0.0,0.0,95,0.00,,,0.00,meteohub,2013-05-19 05:50:00,
2013-05-19 01:55:00,46.8,45.3,29.61,SSE,167,0.0,0.0,95,0.00,,,0.00,meteohub,2013-05-19 05:55:00,
2013-05-19 02:00:00,46.8,45.3,29.60,SSE,167,0.0,0.0,95,0.00,,,0.00,meteohub,2013-05-19 06:00:00,
2013-05-19 02:05:00,46.8,45.3,29.61,SSE,166,0.0,0.0,95,0.00,,,0.00,meteohub,2013-05-19 06:05:00,
2013-05-19 02:10:00,46.8,45.3,29.61,SSE,167,0.0,0.0,95,0.00,,,0.00,meteohub,2013-05-19 06:10:00,
2013-05-19 02:16:00,46.8,45.3,29.61,SSE,167,0.0,0.0,95,0.00,,,0.00,meteohub,2013-05-19 06:16:00,
2013-05-19 02:21:00,46.8,45.3,29.61,SSE,167,0.0,0.0,95,0.00,,,0.00,meteohub,2013-05-19 06:21:00,
2013-05-19 02:26:00,46.9,45.5,29.61,SSE,166,0.0,0.0,95,0.00,,,0.00,meteohub,2013-05-19 06:26:00,
2013-05-19 02:31:00,46.9,45.5,29.61,SSE,166,0.0,0.0,95,0.00,,,0.00,meteohub,2013-05-19 06:31:00,
2013-05-19 02:36:00,46.9,45.5,29.60,SSE,166,0.0,0.0,95,0.00,,,0.00,meteohub,2013-05-19 06:36:00,
2013-05-19 02:41:00,47.1,45.7,29.61,SSE,166,0.0,0.0,95,0.00,,,0.00,meteohub,2013-05-19 06:41:00,
2013-05-19 02:46:00,47.1,45.7,29.61,SSE,166,0.0,0.0,95,0.00,,,0.00,meteohub,2013-05-19 06:46:00,
2013-05-19 02:51:00,47.1,45.7,29.61,SSE,166,0.0,0.0,95,0.00,,,0.00,meteohub,2013-05-19 06:51:00,
2013-05-19 02:56:00,47.1,45.7,29.61,SSE,165,0.0,0.0,95,0.00,,,0.00,meteohub,2013-05-19 06:56:00,
2013-05-19 03:01:00,47.1,45.7,29.60,SSE,167,0.0,0.0,95,0.00,,,0.00,meteohub,2013-05-19 07:01:00,
2013-05-19 03:06:00,47.1,45.7,29.61,SSE,167,0.0,0.0,95,0.00,,,0.00,meteohub,2013-05-19 07:06:00,
2013-05-19 03:11:00,47.1,45.7,29.61,SSE,167,0.0,0.0,95,0.00,,,0.00,meteohub,2013-05-19 07:11:00,
2013-05-19 03:17:00,47.1,45.7,29.61,SSE,167,0.0,0.0,95,0.00,,,0.00,meteohub,2013-05-19 07:17:00,
2013-05-19 03:22:00,46.9,45.5,29.61,SSE,166,0.0,0.0,95,0.00,,,0.00,meteohub,2013-05-19 07:22:00,
2013-05-19 03:27:00,46.9,45.5,29.61,SSE,167,0.0,0.0,95,0.00,,,0.00,meteohub,2013-05-19 07:27:00,
2013-05-19 03:32:00,46.9,45.5,29.61,SSE,166,0.0,0.0,95,0.00,,,0.00,meteohub,2013-05-19 07:32:00,
2013-05-19 03:37:00,46.9,45.5,29.61,SSE,166,0.0,0.0,95,0.00,,,0.00,meteohub,2013-05-19 07:37:00,
2013-05-19 03:42:00,46.9,45.5,29.61,SSE,166,0.0,0.0,95,0.00,,,0.00,meteohub,2013-05-19 07:42:00,
2013-05-19 03:47:00,47.1,45.7,29.61,SSE,166,0.0,0.0,95,0.00,,,0.00,meteohub,2013-05-19 07:47:00,
2013-05-19 03:52:00,47.1,45.7,29.61,SSE,166,0.0,0.0,95,0.00,,,0.00,meteohub,2013-05-19 07:52:00,
2013-05-19 03:57:00,47.1,46.0,29.61,SSE,167,0.0,0.0,96,0.00,,,0.00,meteohub,2013-05-19 07:57:00,
2013-05-19 04:02:00,47.3,46.2,29.61,SSE,167,0.0,0.0,96,0.00,,,0.00,meteohub,2013-05-19 08:02:00,
2013-05-19 04:07:00,47.3,46.2,29.61,SSE,167,0.0,0.0,96,0.00,,,0.00,meteohub,2013-05-19 08:07:00,
2013-05-19 04:12:00,47.5,46.4,29.61,SSE,166,0.0,0.0,96,0.00,,,0.00,meteohub,2013-05-19 08:12:00,
2013-05-19 04:17:00,47.5,46.4,29.61,SSE,166,0.0,0.0,96,0.00,,,0.00,meteohub,2013-05-19 08:17:00,
2013-05-19 04:22:00,47.7,46.6,29.61,SSE,167,0.0,0.0,96,0.00,,,0.00,meteohub,2013-05-19 08:22:00,
2013-05-19 04:27:00,47.7,46.6,29.61,SSE,166,0.0,0.0,96,0.00,,,0.00,meteohub,2013-05-19 08:27:00,
2013-05-19 04:32:00,47.7,46.6,29.61,SSE,166,0.0,0.0,96,0.00,,,0.00,meteohub,2013-05-19 08:32:00,
2013-05-19 04:37:00,47.7,46.6,29.61,SSE,166,0.0,0.0,96,0.00,,,0.00,meteohub,2013-05-19 08:37:00,
2013-05-19 04:42:00,47.8,46.8,29.61,SSE,167,0.0,0.0,96,0.00,,,0.00,meteohub,2013-05-19 08:42:00,
2013-05-19 04:47:00,47.8,46.8,29.61,SSE,166,0.0,0.0,96,0.00,,,0.00,meteohub,2013-05-19 08:47:00,
2013-05-19 04:52:00,48.0,46.9,29.61,SSE,166,0.0,0.0,96,0.00,,,0.00,meteohub,2013-05-19 08:52:00,
2013-05-19 04:57:00,48.0,46.9,29.61,SSE,167,0.0,0.0,96,0.00,,,0.00,meteohub,2013-05-19 08:57:00,
2013-05-19 05:02:00,48.2,47.1,29.61,SSE,166,0.0,0.0,96,0.00,,,0.00,meteohub,2013-05-19 09:02:00,
2013-05-19 05:07:00,48.4,47.3,29.61,SSE,166,0.0,0.0,96,0.00,,,0.00,meteohub,2013-05-19 09:07:00,
2013-05-19 05:12:00,48.4,47.3,29.61,SSE,166,0.0,0.0,96,0.00,,,0.00,meteohub,2013-05-19 09:12:00,
2013-05-19 05:17:00,48.4,47.3,29.61,SSE,166,0.0,0.0,96,0.00,,,0.00,meteohub,2013-05-19 09:17:00,
2013-05-19 05:22:00,48.4,47.3,29.61,SSE,166,0.0,0.0,96,0.00,,,0.00,meteohub,2013-05-19 09:22:00,
2013-05-19 05:27:00,48.6,47.5,29.61,SSE,166,0.0,0.0,96,0.00,,,0.00,meteohub,2013-05-19 09:27:00,
2013-05-19 05:32:00,48.6,47.5,29.62,SSE,166,0.0,0.0,96,0.00,,,0.00,meteohub,2013-05-19 09:32:00,
2013-05-19 05:37:00,48.6,47.5,29.62,SSE,166,0.0,0.0,96,0.00,,,0.00,meteohub,2013-05-19 09:37:00,
2013-05-19 05:42:00,48.6,47.5,29.62,SSE,167,0.0,0.0,96,0.00,,,0.00,meteohub,2013-05-19 09:42:00,
2013-05-19 05:47:00,48.7,47.7,29.62,SSE,167,0.0,0.0,96,0.00,,,0.00,meteohub,2013-05-19 09:47:00,
2013-05-19 05:52:00,48.7,47.7,29.62,SSE,167,0.0,0.0,96,0.00,,,0.00,meteohub,2013-05-19 09:52:00,
2013-05-19 05:57:00,48.7,47.7,29.62,SSE,166,0.0,0.0,96,0.00,,,0.00,meteohub,2013-05-19 09:57:00,
2013-05-19 06:02:00,48.9,47.8,29.62,SSE,167,0.0,0.0,96,0.00,,,0.00,meteohub,2013-05-19 10:02:00,
2013-05-19 06:07:00,49.1,48.0,29.62,SSE,166,0.0,0.0,96,0.00,,,0.00,meteohub,2013-05-19 10:07:00,
2013-05-19 06:12:00,49.3,48.2,29.62,SSE,166,0.0,0.0,96,0.00,,,0.00,meteohub,2013-05-19 10:12:00,
2013-05-19 06:17:00,49.3,48.2,29.62,SSE,166,0.0,0.0,96,0.00,,,0.00,meteohub,2013-05-19 10:17:00,
2013-05-19 06:22:00,49.5,48.4,29.63,SSE,166,0.0,0.0,96,0.00,,,0.00,meteohub,2013-05-19 10:22:00,
2013-05-19 06:27:00,49.5,48.4,29.63,SSE,167,0.0,0.0,96,0.00,,,0.00,meteohub,2013-05-19 10:27:00,
2013-05-19 06:32:00,49.6,48.6,29.63,SSE,167,0.0,0.0,96,0.00,,,0.00,meteohub,2013-05-19 10:32:00,
2013-05-19 06:37:00,49.6,48.6,29.63,SSE,166,0.0,0.0,96,0.00,,,0.00,meteohub,2013-05-19 10:37:00,
2013-05-19 06:42:00,49.8,48.7,29.63,SSE,167,0.0,0.0,96,0.00,,,0.00,meteohub,2013-05-19 10:42:00,
2013-05-19 06:47:00,49.8,48.7,29.63,SSE,166,0.0,0.0,96,0.00,,,0.00,meteohub,2013-05-19 10:47:00,
2013-05-19 06:52:00,50.0,48.9,29.63,SSE,166,0.0,0.0,96,0.00,,,0.00,meteohub,2013-05-19 10:52:00,
2013-05-19 06:57:00,50.2,49.1,29.63,SSE,166,0.0,0.0,96,0.00,,,0.00,meteohub,2013-05-19 10:57:00,
2013-05-19 07:02:00,50.2,49.1,29.63,SSE,167,0.0,0.0,96,0.00,,,0.00,meteohub,2013-05-19 11:02:00,
2013-05-19 07:07:00,50.4,49.3,29.63,SSE,167,0.0,0.0,96,0.00,,,0.00,meteohub,2013-05-19 11:07:00,
2013-05-19 07:12:00,50.4,49.3,29.64,SSE,166,0.0,0.0,96,0.00,,,0.00,meteohub,2013-05-19 11:12:00,
2013-05-19 07:17:00,50.5,49.5,29.64,SSE,166,0.0,0.0,96,0.00,,,0.00,meteohub,2013-05-19 11:17:00,
2013-05-19 07:22:00,50.5,49.5,29.64,SSE,166,0.0,0.0,96,0.00,,,0.00,meteohub,2013-05-19 11:22:00,
2013-05-19 07:27:00,50.7,49.6,29.64,SSE,166,0.0,0.0,96,0.00,,,0.00,meteohub,2013-05-19 11:27:00,
2013-05-19 07:32:00,51.3,50.4,29.64,SW,219,0.0,1.0,97,0.00,,,0.00,meteohub,2013-05-19 11:32:00,
2013-05-19 07:37:00,51.6,50.5,29.64,SSW,212,0.0,1.0,96,0.00,,,0.00,meteohub,2013-05-19 11:37:00,
2013-05-19 07:42:00,51.8,50.7,29.63,WSW,240,0.0,1.0,96,0.00,,,0.00,meteohub,2013-05-19 11:42:00,
2013-05-19 07:47:00,52.0,50.5,29.64,WSW,238,0.0,1.0,95,0.00,,,0.00,meteohub,2013-05-19 11:47:00,
2013-05-19 07:52:00,52.2,50.7,29.64,SE,124,0.0,1.0,95,0.00,,,0.00,meteohub,2013-05-19 11:52:00,
2013-05-19 07:57:00,52.3,50.9,29.64,WNW,295,1.0,1.0,95,0.00,,,0.00,meteohub,2013-05-19 11:57:00,
2013-05-19 08:02:00,52.5,50.9,29.64,WSW,251,0.0,2.0,94,0.00,,,0.00,meteohub,2013-05-19 12:02:00,
2013-05-19 08:07:00,52.9,51.3,29.64,WSW,252,0.0,2.0,94,0.00,,,0.00,meteohub,2013-05-19 12:07:00,
2013-05-19 08:12:00,52.9,51.3,29.64,WSW,251,0.0,2.0,94,0.00,,,0.00,meteohub,2013-05-19 12:12:00,
2013-05-19 08:17:00,53.1,51.4,29.64,WNW,299,0.0,1.0,94,0.00,,,0.00,meteohub,2013-05-19 12:17:00,
2013-05-19 08:22:00,53.2,51.6,29.65,WNW,300,0.0,1.0,94,0.00,,,0.00,meteohub,2013-05-19 12:22:00,
2013-05-19 08:27:00,53.4,51.8,29.65,WSW,243,0.0,1.0,94,0.00,,,0.00,meteohub,2013-05-19 12:27:00,
2013-05-19 08:32:00,53.6,52.0,29.65,WSW,243,0.0,1.0,94,0.00,,,0.00,meteohub,2013-05-19 12:32:00,
2013-05-19 08:37:00,53.8,52.2,29.65,WSW,243,0.0,1.0,94,0.00,,,0.00,meteohub,2013-05-19 12:37:00,
2013-05-19 08:42:00,53.8,52.2,29.64,WSW,243,0.0,0.0,94,0.00,,,0.00,meteohub,2013-05-19 12:42:00,
2013-05-19 08:47:00,54.0,52.3,29.65,ESE,102,0.0,1.0,94,0.00,,,0.00,meteohub,2013-05-19 12:47:00,
2013-05-19 08:52:00,54.0,52.3,29.65,East,101,0.0,1.0,94,0.00,,,0.00,meteohub,2013-05-19 12:52:00,
2013-05-19 08:57:00,54.1,52.5,29.66,East,101,0.0,1.0,94,0.00,,,0.00,meteohub,2013-05-19 12:57:00,
2013-05-19 09:02:00,54.1,52.5,29.66,East,101,0.0,1.0,94,0.00,,,0.00,meteohub,2013-05-19 13:02:00,
2013-05-19 09:07:00,54.3,52.7,29.65,ESE,102,1.0,0.0,94,0.00,,,0.00,meteohub,2013-05-19 13:07:00,
2013-05-19 09:12:00,54.3,52.3,29.65,ESE,102,0.0,1.0,93,0.00,,,0.00,meteohub,2013-05-19 13:12:00,
2013-05-19 09:17:00,54.5,52.5,29.65,ESE,102,0.0,1.0,93,0.00,,,0.00,meteohub,2013-05-19 13:17:00,
2013-05-19 09:22:00,54.7,52.7,29.66,ESE,120,0.0,1.0,93,0.00,,,0.00,meteohub,2013-05-19 13:22:00,
2013-05-19 09:27:00,54.7,52.7,29.66,ESE,118,0.0,1.0,93,0.00,,,0.00,meteohub,2013-05-19 13:27:00,
2013-05-19 09:32:00,54.9,53.2,29.65,ESE,118,0.0,1.0,94,0.00,,,0.00,meteohub,2013-05-19 13:32:00,
2013-05-19 09:37:00,54.9,53.2,29.65,ESE,118,0.0,1.0,94,0.00,,,0.00,meteohub,2013-05-19 13:37:00,
2013-05-19 09:42:00,55.0,53.4,29.65,NW,317,0.0,1.0,94,0.00,,,0.00,meteohub,2013-05-19 13:42:00,
2013-05-19 09:47:00,55.0,53.4,29.65,SSW,198,0.0,2.0,94,0.00,,,0.00,meteohub,2013-05-19 13:47:00,
2013-05-19 09:52:00,55.0,53.4,29.65,SSW,198,0.0,2.0,94,0.00,,,0.00,meteohub,2013-05-19 13:52:00,
2013-05-19 09:57:00,55.0,53.4,29.65,SSW,198,0.0,2.0,94,0.00,,,0.00,meteohub,2013-05-19 13:57:00,
2013-05-19 10:02:00,55.0,53.4,29.65,SE,131,0.0,1.0,94,0.00,,,0.00,meteohub,2013-05-19 14:02:00,
2013-05-19 10:07:00,55.2,53.6,29.65,SE,131,0.0,0.0,94,0.00,,,0.00,meteohub,2013-05-19 14:07:00,
2013-05-19 10:12:00,55.2,53.6,29.65,SE,128,0.0,0.0,94,0.00,,,0.00,meteohub,2013-05-19 14:12:00,
2013-05-19 10:17:00,55.4,53.8,29.65,SE,128,0.0,0.0,94,0.00,,,0.00,meteohub,2013-05-19 14:17:00,
2013-05-19 10:22:00,55.6,54.0,29.66,NNW,328,1.0,1.0,94,0.00,,,0.00,meteohub,2013-05-19 14:22:00,
2013-05-19 10:27:00,55.8,54.1,29.66,WNW,297,0.0,2.0,94,0.00,,,0.00,meteohub,2013-05-19 14:27:00,
2013-05-19 10:32:00,55.8,54.1,29.66,ESE,108,0.0,2.0,94,0.00,,,0.00,meteohub,2013-05-19 14:32:00,
2013-05-19 10:37:00,55.8,54.1,29.66,WNW,302,0.0,2.0,94,0.00,,,0.00,meteohub,2013-05-19 14:37:00,
2013-05-19 10:42:00,55.9,54.3,29.66,WNW,302,0.0,2.0,94,0.00,,,0.00,meteohub,2013-05-19 14:42:00,
2013-05-19 10:47:00,55.9,54.3,29.66,NW,311,0.0,2.0,94,0.00,,,0.00,meteohub,2013-05-19 14:47:00,
2013-05-19 10:52:00,55.9,54.3,29.66,SSE,152,0.0,1.0,94,0.01,,,0.01,meteohub,2013-05-19 14:52:00,
2013-05-19 10:57:00,55.9,54.3,29.66,SSE,152,0.0,2.0,94,0.01,,,0.01,meteohub,2013-05-19 14:57:00,
2013-05-19 11:02:00,55.9,54.0,29.66,East,101,0.0,2.0,93,0.01,,,0.01,meteohub,2013-05-19 15:02:00,
2013-05-19 11:07:00,55.9,54.0,29.66,East,101,0.0,2.0,93,0.01,,,0.01,meteohub,2013-05-19 15:07:00,
2013-05-19 11:12:00,55.8,53.8,29.66,NW,312,0.0,2.0,93,0.01,,,0.01,meteohub,2013-05-19 15:12:00,
2013-05-19 11:17:00,55.8,53.8,29.66,NW,304,0.0,2.0,93,0.01,,,0.01,meteohub,2013-05-19 15:17:00,
2013-05-19 11:22:00,55.8,54.1,29.66,WNW,296,0.0,1.0,94,0.01,,,0.01,meteohub,2013-05-19 15:22:00,
2013-05-19 11:27:00,55.8,54.1,29.65,WNW,297,0.0,1.0,94,0.01,,,0.01,meteohub,2013-05-19 15:27:00,
2013-05-19 11:32:00,55.9,54.3,29.65,West,267,0.0,1.0,94,0.01,,,0.01,meteohub,2013-05-19 15:32:00,
2013-05-19 11:37:00,55.9,54.3,29.65,West,266,0.0,1.0,94,0.01,,,0.01,meteohub,2013-05-19 15:37:00,
2013-05-19 11:42:00,55.9,54.3,29.65,West,267,0.0,1.0,94,0.02,,,0.02,meteohub,2013-05-19 15:42:00,
2013-05-19 11:47:00,55.9,54.3,29.65,WNW,283,0.0,4.0,94,0.02,,,0.02,meteohub,2013-05-19 15:47:00,
2013-05-19 11:52:00,55.9,54.3,29.65,West,269,1.0,4.0,94,0.01,,,0.02,meteohub,2013-05-19 15:52:00,
2013-05-19 11:57:00,55.9,54.3,29.65,East,100,0.0,4.0,94,0.01,,,0.02,meteohub,2013-05-19 15:57:00,
2013-05-19 12:02:00,55.9,54.3,29.65,WNW,290,1.0,1.0,94,0.01,,,0.02,meteohub,2013-05-19 16:02:00,
2013-05-19 12:07:00,55.9,54.3,29.65,East,81,0.0,2.0,94,0.01,,,0.02,meteohub,2013-05-19 16:07:00,
2013-05-19 12:12:00,55.8,54.1,29.64,NE,39,0.0,2.0,94,0.01,,,0.02,meteohub,2013-05-19 16:12:00,
2013-05-19 12:17:00,55.6,54.0,29.64,ESE,114,1.0,2.0,94,0.01,,,0.02,meteohub,2013-05-19 16:17:00,
2013-05-19 12:22:00,55.6,54.0,29.64,WNW,302,0.0,1.0,94,0.02,,,0.03,meteohub,2013-05-19 16:22:00,
2013-05-19 12:27:00,55.6,54.0,29.64,NW,321,0.0,2.0,94,0.02,,,0.03,meteohub,2013-05-19 16:27:00,
2013-05-19 12:32:00,55.4,54.0,29.64,ESE,122,1.0,2.0,95,0.02,,,0.03,meteohub,2013-05-19 16:32:00,
2013-05-19 12:37:00,55.4,54.0,29.64,SE,126,0.0,2.0,95,0.02,,,0.03,meteohub,2013-05-19 16:37:00,
2013-05-19 12:42:00,55.4,54.0,29.64,ESE,117,1.0,2.0,95,0.01,,,0.03,meteohub,2013-05-19 16:42:00,
2013-05-19 12:47:00,55.2,53.8,29.63,NW,322,0.0,2.0,95,0.01,,,0.03,meteohub,2013-05-19 16:47:00,
2013-05-19 12:52:00,55.0,53.6,29.63,South,174,2.0,2.0,95,0.01,,,0.03,meteohub,2013-05-19 16:52:00,
2013-05-19 12:57:00,55.0,53.6,29.63,SSE,162,0.0,3.0,95,0.01,,,0.03,meteohub,2013-05-19 16:57:00,
2013-05-19 13:02:00,55.0,53.6,29.63,South,177,1.0,3.0,95,0.01,,,0.03,meteohub,2013-05-19 17:02:00,
2013-05-19 13:07:00,55.0,53.6,29.63,SSE,164,0.0,3.0,95,0.01,,,0.03,meteohub,2013-05-19 17:07:00,
2013-05-19 13:12:00,55.0,53.6,29.63,East,79,1.0,2.0,95,0.01,,,0.03,meteohub,2013-05-19 17:12:00,
2013-05-19 13:17:00,54.9,53.4,29.63,ENE,71,0.0,2.0,95,0.00,,,0.03,meteohub,2013-05-19 17:17:00,
2013-05-19 13:22:00,54.9,53.4,29.62,SSW,205,0.0,2.0,95,0.01,,,0.04,meteohub,2013-05-19 17:22:00,
2013-05-19 13:27:00,54.9,53.4,29.62,WNW,302,0.0,2.0,95,0.01,,,0.04,meteohub,2013-05-19 17:27:00,
2013-05-19 13:32:00,54.9,53.4,29.62,SSE,167,3.0,3.0,95,0.01,,,0.04,meteohub,2013-05-19 17:32:00,
2013-05-19 13:37:00,54.9,53.4,29.62,WSW,250,0.0,4.0,95,0.01,,,0.04,meteohub,2013-05-19 17:37:00,
2013-05-19 13:42:00,54.9,53.8,29.62,WSW,249,0.0,4.0,96,0.01,,,0.04,meteohub,2013-05-19 17:42:00,
2013-05-19 13:47:00,54.9,53.8,29.62,SW,224,0.0,4.0,96,0.01,,,0.04,meteohub,2013-05-19 17:47:00,
2013-05-19 13:52:00,54.9,53.4,29.62,East,84,0.0,2.0,95,0.01,,,0.04,meteohub,2013-05-19 17:52:00,
2013-05-19 13:57:00,54.9,53.8,29.61,WNW,284,0.0,2.0,96,0.01,,,0.04,meteohub,2013-05-19 17:57:00,
2013-05-19 14:02:00,55.0,54.0,29.61,SE,142,0.0,2.0,96,0.02,,,0.05,meteohub,2013-05-19 18:02:00,
2013-05-19 14:07:00,55.0,54.0,29.61,NE,50,0.0,1.0,96,0.02,,,0.05,meteohub,2013-05-19 18:07:00,
2013-05-19 14:12:00,55.0,53.6,29.62,WNW,295,0.0,1.0,95,0.02,,,0.05,meteohub,2013-05-19 18:12:00,
2013-05-19 14:17:00,55.0,54.0,29.61,South,175,0.0,3.0,96,0.02,,,0.05,meteohub,2013-05-19 18:17:00,
2013-05-19 14:22:00,55.0,54.0,29.61,NW,314,0.0,3.0,96,0.01,,,0.05,meteohub,2013-05-19 18:22:00,
2013-05-19 14:27:00,55.0,54.0,29.61,NW,315,0.0,3.0,96,0.01,,,0.05,meteohub,2013-05-19 18:27:00,
2013-05-19 14:32:00,55.0,53.6,29.61,SSE,150,0.0,3.0,95,0.01,,,0.05,meteohub,2013-05-19 18:32:00,
2013-05-19 14:37:00,54.9,53.4,29.61,SSW,210,0.0,3.0,95,0.01,,,0.05,meteohub,2013-05-19 18:37:00,
2013-05-19 14:42:00,54.9,53.4,29.61,SSW,211,0.0,3.0,95,0.02,,,0.06,meteohub,2013-05-19 18:42:00,
2013-05-19 14:47:00,54.9,53.4,29.61,SSW,211,0.0,1.0,95,0.02,,,0.06,meteohub,2013-05-19 18:47:00,
2013-05-19 14:52:00,54.9,53.4,29.61,SSW,205,0.0,1.0,95,0.02,,,0.06,meteohub,2013-05-19 18:52:00,
2013-05-19 14:57:00,54.9,53.8,29.60,SSW,207,0.0,0.0,96,0.03,,,0.07,meteohub,2013-05-19 18:57:00,
2013-05-19 15:02:00,54.9,53.8,29.60,SSW,207,0.0,1.0,96,0.02,,,0.07,meteohub,2013-05-19 19:02:00,
2013-05-19 15:07:00,55.0,54.0,29.60,SSW,205,1.0,1.0,96,0.02,,,0.07,meteohub,2013-05-19 19:07:00,
2013-05-19 15:12:00,55.2,54.1,29.60,WNW,287,0.0,2.0,96,0.02,,,0.07,meteohub,2013-05-19 19:12:00,
2013-05-19 15:17:00,55.2,54.1,29.60,WNW,299,0.0,2.0,96,0.02,,,0.07,meteohub,2013-05-19 19:17:00,
2013-05-19 15:22:00,55.2,54.1,29.60,WNW,299,0.0,2.0,96,0.02,,,0.07,meteohub,2013-05-19 19:22:00,
2013-05-19 15:27:00,55.2,53.8,29.60,NW,312,0.0,1.0,95,0.02,,,0.07,meteohub,2013-05-19 19:27:00,
2013-05-19 15:32:00,55.0,53.6,29.59,SW,220,0.0,2.0,95,0.02,,,0.07,meteohub,2013-05-19 19:32:00,
2013-05-19 15:37:00,55.0,53.6,29.59,West,279,0.0,2.0,95,0.02,,,0.07,meteohub,2013-05-19 19:37:00,
2013-05-19 15:42:00,55.0,53.6,29.59,NW,312,0.0,2.0,95,0.01,,,0.07,meteohub,2013-05-19 19:42:00,
2013-05-19 15:47:00,55.0,54.0,29.59,SSW,198,0.0,2.0,96,0.01,,,0.07,meteohub,2013-05-19 19:47:00,
2013-05-19 15:52:00,55.2,54.1,29.59,SE,127,0.0,2.0,96,0.00,,,0.07,meteohub,2013-05-19 19:52:00,
2013-05-19 15:57:00,55.2,53.8,29.59,NW,321,2.0,2.0,95,0.00,,,0.07,meteohub,2013-05-19 19:57:00,
2013-05-19 16:02:00,55.2,53.8,29.59,ESE,102,4.0,4.0,95,0.00,,,0.07,meteohub,2013-05-19 20:02:00,
2013-05-19 16:07:00,55.0,53.6,29.58,WSW,254,1.0,4.0,95,0.00,,,0.07,meteohub,2013-05-19 20:07:00,
2013-05-19 16:12:00,55.2,54.1,29.58,WSW,255,1.0,4.0,96,0.01,,,0.08,meteohub,2013-05-19 20:12:00,
2013-05-19 16:17:00,55.2,54.1,29.57,West,271,0.0,4.0,96,0.01,,,0.08,meteohub,2013-05-19 20:17:00,
2013-05-19 16:22:00,55.6,54.5,29.58,South,169,0.0,3.0,96,0.01,,,0.08,meteohub,2013-05-19 20:22:00,
2013-05-19 16:27:00,55.6,54.1,29.58,WSW,257,0.0,2.0,95,0.01,,,0.08,meteohub,2013-05-19 20:27:00,
2013-05-19 16:32:00,55.6,54.1,29.58,NW,307,0.0,2.0,95,0.01,,,0.08,meteohub,2013-05-19 20:32:00,
2013-05-19 16:38:00,55.2,53.8,29.58,SSW,201,0.0,2.0,95,0.01,,,0.08,meteohub,2013-05-19 20:38:00,
2013-05-19 16:43:00,55.2,53.8,29.58,ESE,110,0.0,3.0,95,0.01,,,0.08,meteohub,2013-05-19 20:43:00,
2013-05-19 16:48:00,55.2,53.8,29.58,WSW,243,1.0,3.0,95,0.01,,,0.08,meteohub,2013-05-19 20:48:00,
2013-05-19 16:53:00,55.0,53.6,29.58,West,259,0.0,2.0,95,0.01,,,0.08,meteohub,2013-05-19 20:53:00,
2013-05-19 16:58:00,55.0,53.6,29.58,West,271,0.0,2.0,95,0.01,,,0.08,meteohub,2013-05-19 20:58:00,
2013-05-19 17:03:00,55.0,53.6,29.58,West,279,0.0,4.0,95,0.01,,,0.08,meteohub,2013-05-19 21:03:00,
2013-05-19 17:08:00,55.0,54.0,29.58,SSW,211,0.0,4.0,96,0.00,,,0.08,meteohub,2013-05-19 21:08:00,
2013-05-19 17:13:00,55.0,54.0,29.58,ESE,109,1.0,4.0,96,0.00,,,0.08,meteohub,2013-05-19 21:13:00,
2013-05-19 17:18:00,55.2,54.1,29.57,SSW,201,0.0,2.0,96,0.00,,,0.08,meteohub,2013-05-19 21:18:00,
2013-05-19 17:23:00,55.2,54.1,29.57,WNW,284,0.0,2.0,96,0.00,,,0.08,meteohub,2013-05-19 21:23:00,
2013-05-19 17:28:00,55.2,54.1,29.57,WNW,284,0.0,2.0,96,0.00,,,0.08,meteohub,2013-05-19 21:28:00,
2013-05-19 17:33:00,55.2,54.1,29.57,NE,35,0.0,2.0,96,0.00,,,0.08,meteohub,2013-05-19 21:33:00,
2013-05-19 17:38:00,55.2,54.1,29.57,WNW,291,0.0,2.0,96,0.00,,,0.08,meteohub,2013-05-19 21:38:00,
2013-05-19 17:43:00,55.2,54.1,29.57,WNW,286,1.0,2.0,96,0.00,,,0.08,meteohub,2013-05-19 21:43:00,
2013-05-19 17:49:00,55.2,54.1,29.57,WNW,293,0.0,2.0,96,0.01,,,0.09,meteohub,2013-05-19 21:49:00,
2013-05-19 17:54:00,55.0,54.0,29.57,WNW,301,1.0,2.0,96,0.01,,,0.09,meteohub,2013-05-19 21:54:00,
2013-05-19 17:59:00,55.0,54.0,29.57,WNW,302,2.0,2.0,96,0.01,,,0.09,meteohub,2013-05-19 21:59:00,
2013-05-19 18:04:00,54.9,53.8,29.57,West,259,0.0,3.0,96,0.01,,,0.09,meteohub,2013-05-19 22:04:00,
2013-05-19 18:09:00,54.9,53.8,29.57,SW,226,0.0,3.0,96,0.01,,,0.09,meteohub,2013-05-19 22:09:00,
2013-05-19 18:14:00,54.9,53.8,29.56,East,83,0.0,3.0,96,0.01,,,0.09,meteohub,2013-05-19 22:14:00,
2013-05-19 18:19:00,54.9,53.8,29.56,NW,307,0.0,3.0,96,0.01,,,0.09,meteohub,2013-05-19 22:19:00,
2013-05-19 18:24:00,54.9,53.8,29.57,NW,322,0.0,2.0,96,0.01,,,0.09,meteohub,2013-05-19 22:24:00,
2013-05-19 18:29:00,54.9,53.8,29.56,SE,128,0.0,5.0,96,0.01,,,0.09,meteohub,2013-05-19 22:29:00,
2013-05-19 18:35:00,54.9,53.8,29.56,West,262,1.0,5.0,96,0.01,,,0.09,meteohub,2013-05-19 22:35:00,
2013-05-19 18:40:00,54.9,53.8,29.57,WSW,249,0.0,5.0,96,0.01,,,0.09,meteohub,2013-05-19 22:40:00,
2013-05-19 18:45:00,54.9,53.8,29.56,SW,215,0.0,1.0,96,0.00,,,0.09,meteohub,2013-05-19 22:45:00,
2013-05-19 18:50:00,54.7,53.6,29.56,WNW,284,1.0,1.0,96,0.00,,,0.09,meteohub,2013-05-19 22:50:00,
2013-05-19 18:55:00,54.7,53.6,29.56,WNW,283,0.0,3.0,96,0.00,,,0.09,meteohub,2013-05-19 22:55:00,
2013-05-19 19:00:00,54.7,53.6,29.56,SSW,200,0.0,3.0,96,0.00,,,0.09,meteohub,2013-05-19 23:00:00,
2013-05-19 19:05:00,54.7,53.6,29.56,SSW,200,0.0,1.0,96,0.00,,,0.09,meteohub,2013-05-19 23:05:00,
2013-05-19 19:10:00,54.7,53.6,29.56,WNW,301,0.0,1.0,96,0.00,,,0.09,meteohub,2013-05-19 23:10:00,
2013-05-19 19:15:00,54.7,53.6,29.56,NW,309,1.0,1.0,96,0.00,,,0.09,meteohub,2013-05-19 23:15:00,
2013-05-19 19:20:00,54.7,53.8,29.56,WNW,290,1.0,1.0,97,0.00,,,0.09,meteohub,2013-05-19 23:20:00,
2013-05-19 19:25:00,54.7,53.6,29.55,West,267,0.0,2.0,96,0.00,,,0.09,meteohub,2013-05-19 23:25:00,
2013-05-19 19:30:00,54.5,53.6,29.55,WNW,289,0.0,3.0,97,0.00,,,0.09,meteohub,2013-05-19 23:30:00,
2013-05-19 19:35:00,54.5,53.6,29.56,WSW,255,1.0,3.0,97,0.00,,,0.09,meteohub,2013-05-19 23:35:00,
2013-05-19 19:40:00,54.3,53.4,29.56,WNW,302,1.0,3.0,97,0.00,,,0.09,meteohub,2013-05-19 23:40:00,
2013-05-19 19:45:00,54.3,53.4,29.56,SE,124,0.0,3.0,97,0.01,,,0.10,meteohub,2013-05-19 23:45:00,
2013-05-19 19:51:00,54.3,53.4,29.55,South,173,1.0,3.0,97,0.01,,,0.10,meteohub,2013-05-19 23:51:00,
2013-05-19 19:56:00,54.3,53.4,29.55,West,277,0.0,2.0,97,0.01,,,0.10,meteohub,2013-05-19 23:56:00,
2013-05-19 20:01:00,54.3,53.4,29.55,NW,311,0.0,2.0,97,0.01,,,0.10,meteohub,2013-05-20 00:01:00,
2013-05-19 20:06:00,54.3,53.4,29.56,NW,310,0.0,2.0,97,0.02,,,0.01,meteohub,2013-05-20 00:06:00,
2013-05-19 20:11:00,54.3,53.4,29.56,NW,307,0.0,2.0,97,0.02,,,0.01,meteohub,2013-05-20 00:11:00,
2013-05-19 20:16:00,54.3,53.4,29.56,West,271,0.0,1.0,97,0.03,,,0.02,meteohub,2013-05-20 00:16:00,
2013-05-19 20:21:00,54.3,53.4,29.55,West,263,1.0,1.0,97,0.03,,,0.02,meteohub,2013-05-20 00:21:00,
2013-05-19 20:26:00,54.3,53.4,29.55,WNW,299,0.0,1.0,97,0.03,,,0.02,meteohub,2013-05-20 00:26:00,
2013-05-19 20:31:00,54.3,53.4,29.55,West,280,0.0,3.0,97,0.04,,,0.03,meteohub,2013-05-20 00:31:00,
2013-05-19 20:36:00,54.3,53.4,29.56,South,169,1.0,3.0,97,0.04,,,0.03,meteohub,2013-05-20 00:36:00,
2013-05-19 20:41:00,54.3,53.4,29.55,South,190,1.0,3.0,97,0.04,,,0.03,meteohub,2013-05-20 00:41:00,
2013-05-19 20:47:00,54.3,53.4,29.55,SSW,208,0.0,2.0,97,0.03,,,0.03,meteohub,2013-05-20 00:47:00,
2013-05-19 20:52:00,54.3,53.4,29.55,SSE,150,0.0,1.0,97,0.03,,,0.03,meteohub,2013-05-20 00:52:00,
2013-05-19 20:57:00,54.3,53.4,29.55,SW,235,0.0,1.0,97,0.03,,,0.03,meteohub,2013-05-20 00:57:00,
2013-05-19 21:02:00,54.3,53.4,29.55,SW,235,0.0,1.0,97,0.03,,,0.03,meteohub,2013-05-20 01:02:00,
2013-05-19 21:07:00,54.3,53.4,29.55,SSW,210,0.0,1.0,97,0.02,,,0.03,meteohub,2013-05-20 01:07:00,
2013-05-19 21:12:00,54.3,53.4,29.55,WSW,252,0.0,1.0,97,0.03,,,0.04,meteohub,2013-05-20 01:12:00,
2013-05-19 21:17:00,54.3,53.4,29.55,WSW,252,0.0,1.0,97,0.02,,,0.04,meteohub,2013-05-20 01:17:00,
2013-05-19 21:22:00,54.3,53.4,29.55,SSW,198,0.0,1.0,97,0.02,,,0.04,meteohub,2013-05-20 01:22:00,
2013-05-19 21:27:00,54.3,53.4,29.54,WSW,240,0.0,0.0,97,0.02,,,0.04,meteohub,2013-05-20 01:27:00,
2013-05-19 21:32:00,54.3,53.4,29.54,WSW,240,0.0,0.0,97,0.01,,,0.04,meteohub,2013-05-20 01:32:00,
2013-05-19 21:37:00,54.3,53.4,29.54,SW,224,1.0,1.0,97,0.01,,,0.04,meteohub,2013-05-20 01:37:00,
2013-05-19 21:42:00,54.3,53.4,29.54,SW,224,0.0,1.0,97,0.01,,,0.04,meteohub,2013-05-20 01:42:00,
2013-05-19 21:47:00,54.1,53.2,29.54,SW,235,0.0,1.0,97,0.01,,,0.04,meteohub,2013-05-20 01:47:00,
2013-05-19 21:52:00,54.3,53.4,29.54,SW,214,0.0,1.0,97,0.01,,,0.04,meteohub,2013-05-20 01:52:00,
2013-05-19 21:57:00,54.3,53.4,29.54,WNW,297,2.0,2.0,97,0.01,,,0.04,meteohub,2013-05-20 01:57:00,
2013-05-19 22:02:00,54.3,53.4,29.54,NW,311,0.0,2.0,97,0.01,,,0.04,meteohub,2013-05-20 02:02:00,
2013-05-19 22:07:00,54.3,53.4,29.54,SW,225,0.0,2.0,97,0.01,,,0.04,meteohub,2013-05-20 02:07:00,
2013-05-19 22:12:00,54.3,53.4,29.54,SSW,193,0.0,2.0,97,0.00,,,0.04,meteohub,2013-05-20 02:12:00,
2013-05-19 22:17:00,54.3,53.8,29.54,WNW,284,0.0,3.0,98,0.00,,,0.04,meteohub,2013-05-20 02:17:00,
2013-05-19 22:22:00,54.3,53.4,29.54,West,273,1.0,3.0,97,0.00,,,0.04,meteohub,2013-05-20 02:22:00,
2013-05-19 22:27:00,54.3,53.8,29.53,SSE,164,0.0,2.0,98,0.00,,,0.04,meteohub,2013-05-20 02:27:00,
2013-05-19 22:32:00,54.3,53.8,29.53,WSW,238,0.0,2.0,98,0.00,,,0.04,meteohub,2013-05-20 02:32:00,
2013-05-19 22:37:00,54.3,53.8,29.53,WSW,255,0.0,2.0,98,0.00,,,0.04,meteohub,2013-05-20 02:37:00,
2013-05-19 22:42:00,54.3,53.8,29.53,West,269,0.0,3.0,98,0.00,,,0.04,meteohub,2013-05-20 02:42:00,
2013-05-19 22:47:00,54.3,53.8,29.53,West,269,0.0,3.0,98,0.00,,,0.04,meteohub,2013-05-20 02:47:00,
2013-05-19 22:52:00,54.3,53.8,29.53,SSE,152,0.0,3.0,98,0.00,,,0.04,meteohub,2013-05-20 02:52:00,
2013-05-19 22:57:00,54.3,53.8,29.52,SSE,152,0.0,1.0,98,0.00,,,0.04,meteohub,2013-05-20 02:57:00,
2013-05-19 23:02:00,54.3,53.4,29.52,WSW,240,1.0,1.0,97,0.00,,,0.04,meteohub,2013-05-20 03:02:00,
2013-05-19 23:07:00,54.3,53.8,29.52,NNW,339,0.0,1.0,98,0.00,,,0.04,meteohub,2013-05-20 03:07:00,
2013-05-19 23:12:00,54.3,53.8,29.52,SE,143,0.0,2.0,98,0.00,,,0.04,meteohub,2013-05-20 03:12:00,
2013-05-19 23:17:00,54.5,54.0,29.52,SW,218,1.0,2.0,98,0.00,,,0.04,meteohub,2013-05-20 03:17:00,
2013-05-19 23:22:00,54.5,54.0,29.52,WSW,242,0.0,2.0,98,0.00,,,0.04,meteohub,2013-05-20 03:22:00,
2013-05-19 23:27:00,54.5,54.0,29.52,WNW,300,0.0,2.0,98,0.00,,,0.04,meteohub,2013-05-20 03:27:00,
2013-05-19 23:32:00,54.5,54.0,29.52,WNW,299,0.0,2.0,98,0.00,,,0.04,meteohub,2013-05-20 03:32:00,
2013-05-19 23:37:00,54.5,54.0,29.52,WNW,287,0.0,1.0,98,0.00,,,0.04,meteohub,2013-05-20 03:37:00,
2013-05-19 23:42:00,54.5,54.0,29.51,WNW,287,0.0,1.0,98,0.00,,,0.04,meteohub,2013-05-20 03:42:00,
2013-05-19 23:47:00,54.5,54.0,29.51,WNW,287,0.0,1.0,98,0.00,,,0.04,meteohub,2013-05-20 03:47:00,
2013-05-19 23:52:00,54.5,54.0,29.51,West,281,0.0,1.0,98,0.00,,,0.04,meteohub,2013-05-20 03:52:00,
2013-05-19 23:57:00,54.5,54.0,29.50,West,281,0.0,1.0,98,0.00,,,0.04,meteohub,2013-05-20 03:57:00,